[[{"header":{"parameterUnit":"m.s-1","parameterCategory":1,"la1":30.2991,"la2":30.254,"lo1":-89.0895,"lo2":-89.0444,"dy":0.0017,"dx":0.0017,"nx":28,"ny":28,"refTime":"2024-04-24T21:00:00:Z","depth":0,"parameterNumber":2,"parameterNumberName":"U-component_of_WINDS"},"data":[0,0,0,0,0,0,0,0,0,0,0,0,0,0,0,0,0,0,0,0,0,0,0,0,0,0,0,0,0,0,0,0,0,0,0,0,0,0,0,0,0,0,0,0,0,0,0,0,0,0,0,0,0,0,0,0,0,0,-0.5166,-0.5166,0,-0.5141,-0.5141,-0.5141,-0.5115,-0.5115,-0.5114,-0.5114,-0.5089,-0.5089,-0.5088,0,0,0,0,0,0,0,0,0,0,0,0,0,-0.5193,-0.5193,-0.5166,-0.5166,-0.5166,-0.5142,-0.5141,-0.5141,-0.5115,-0.5115,-0.5114,-0.5114,-0.5089,-0.5089,-0.5088,0,0,0,0,0,0,0,0,0,0,0,0,0,-0.5176,-0.5193,-0.5166,-0.515,-0.5148,-0.5142,-0.5141,-0.5141,-0.5115,-0.5115,-0.5114,-0.5114,-0.5089,-0.5089,-0.5088,-0.5096,0,0,-0.5087,-0.5086,0,0,0,0,0,0,0,0,-0.5177,-0.5175,-0.5153,-0.5151,-0.5149,-0.5131,-0.5141,-0.5126,-0.5115,-0.5128,-0.5114,-0.5113,-0.5103,-0.5102,-0.5098,-0.5095,-0.5093,-0.5087,-0.5086,-0.5086,-0.5086,0,0,0,0,0,0,0,-0.5179,-0.5176,-0.5156,-0.5152,-0.515,-0.5144,-0.5141,-0.5138,-0.5119,-0.5127,-0.5125,-0.5122,-0.5102,-0.5099,-0.5097,-0.5093,-0.5087,-0.5086,-0.5086,-0.5086,-0.5097,-0.5097,0,0,0,0,0,0,-0.5182,-0.5177,-0.5157,-0.5156,-0.5162,-0.5144,-0.5141,-0.5137,-0.5119,-0.5115,-0.5123,-0.5121,-0.51,-0.5098,-0.5096,-0.5105,-0.5086,-0.5086,-0.5085,-0.5096,-0.5097,-0.5098,0,0,0,0,0,0,-0.5183,-0.518,-0.5158,-0.5166,-0.5163,-0.5144,-0.514,-0.5137,-0.5133,-0.5116,-0.5112,-0.5122,-0.5099,-0.5097,-0.5097,-0.5104,-0.5085,-0.5085,-0.5095,-0.5096,-0.5097,-0.5122,0,0,0,0,0,0,-0.5184,-0.5181,-0.5183,-0.5166,-0.5162,-0.5158,-0.5141,-0.5137,-0.5133,-0.513,-0.5115,-0.5112,-0.5099,-0.5097,-0.5096,-0.5103,-0.5084,-0.5095,-0.5096,-0.5097,-0.512,-0.5123,-0.5126,0,0,0,0,0,-0.5185,-0.519,-0.5183,-0.5181,-0.5165,-0.5159,-0.5156,-0.5141,-0.5133,-0.5136,-0.5125,-0.5112,-0.5103,-0.5098,-0.5096,-0.5102,-0.5094,-0.5096,-0.5097,-0.5119,-0.5123,-0.5126,0,0,0,0,0,0,-0.5208,-0.5188,-0.5179,-0.518,-0.5171,-0.5154,-0.5156,-0.5146,-0.5139,-0.5137,-0.5119,-0.5116,-0.5118,-0.511,-0.5104,-0.511,-0.5097,-0.5098,-0.5114,-0.5118,-0.5121,-0.5122,-0.5084,0,0,0,0,0,-0.5213,-0.5209,-0.5192,-0.5195,-0.5191,-0.5175,-0.5171,-0.5161,-0.5151,-0.5147,-0.5136,-0.5127,-0.5123,-0.512,-0.5115,-0.5119,-0.5116,-0.5123,-0.5126,-0.5129,-0.513,-0.5133,-0.5136,-0.5102,-0.5102,-0.5102,0,0,-0.5223,-0.5212,-0.5211,-0.5199,-0.5191,-0.5188,-0.5171,-0.5169,-0.5167,-0.5147,-0.5146,-0.5138,-0.5127,-0.5129,-0.513,-0.5123,-0.5139,-0.5131,-0.5133,-0.5132,-0.5135,-0.5138,-0.5141,-0.5103,-0.5103,-0.5103,0,0,-0.5241,-0.5232,-0.5233,-0.5226,-0.5215,-0.5204,-0.5205,-0.519,-0.5184,-0.5183,-0.5168,-0.5166,-0.5158,-0.5152,-0.5147,-0.5166,-0.5154,-0.5165,-0.518,-0.5183,-0.5186,-0.5188,-0.5195,-0.5198,-0.5166,-0.5166,-0.5166,0,-0.5255,-0.525,-0.5235,-0.5234,-0.523,-0.5213,-0.5214,-0.5208,-0.5196,-0.5194,-0.5186,-0.5178,-0.5169,-0.517,-0.5175,-0.5172,-0.5173,-0.5166,-0.5187,-0.5189,-0.5191,-0.5197,-0.52,-0.5167,-0.5167,-0.5167,-0.5167,0,-0.5269,-0.5266,-0.5269,-0.5258,-0.5254,-0.5254,-0.524,-0.5238,-0.5229,-0.522,-0.522,-0.521,-0.5203,-0.5203,-0.5193,-0.5203,-0.52,-0.519,-0.5177,-0.5196,-0.5202,-0.5204,-0.5169,-0.5169,-0.5169,-0.5168,0,0,-0.5298,-0.528,-0.5282,-0.5277,-0.5265,-0.5262,-0.5263,-0.5257,-0.5256,-0.5249,-0.5249,-0.5244,-0.5236,-0.5231,-0.5221,-0.5224,-0.5241,-0.5214,-0.5214,-0.522,-0.5253,-0.526,-0.5263,-0.5234,-0.5234,-0.5235,-0.5254,0,-0.5313,-0.5312,-0.53,-0.5303,-0.5301,-0.5286,-0.5287,-0.528,-0.5272,-0.527,-0.5262,-0.5259,-0.5247,-0.5245,-0.5247,-0.5238,-0.5247,-0.5237,-0.5235,-0.5235,-0.5237,-0.5266,-0.5272,-0.5291,-0.5256,-0.5256,-0.5256,0,-0.533,-0.5325,-0.5328,-0.5317,-0.5316,-0.5316,-0.5311,-0.5308,-0.5301,-0.5295,-0.5291,-0.5281,-0.5282,-0.527,-0.5272,-0.5265,-0.5264,-0.526,-0.5261,-0.5259,-0.5246,-0.5265,-0.5296,-0.5299,-0.526,-0.526,-0.5259,0,-0.5351,-0.5345,-0.5346,-0.5343,-0.533,-0.5331,-0.5326,-0.5318,-0.5316,-0.5311,-0.531,-0.5306,-0.5303,-0.5301,-0.529,-0.5282,-0.5293,-0.528,-0.5289,-0.5289,-0.5291,-0.5291,-0.5322,-0.5291,-0.5291,-0.5291,-0.5291,0,-0.5369,-0.5372,-0.5356,-0.5357,-0.536,-0.5347,-0.535,-0.5344,-0.5337,-0.5337,-0.5325,-0.5325,-0.5311,-0.531,-0.5302,-0.5305,-0.5304,-0.53,-0.5297,-0.5301,-0.5301,-0.5299,-0.5297,-0.5292,-0.5292,-0.5291,-0.5291,0,-0.5392,-0.5382,-0.5383,-0.5371,-0.5369,-0.5372,-0.5362,-0.5363,-0.5356,-0.5356,-0.5355,-0.5344,-0.5342,-0.5332,-0.5328,-0.5322,-0.5329,-0.5324,-0.5331,-0.533,-0.5339,-0.5338,-0.5369,-0.5373,-0.534,-0.534,-0.5341,0,-0.5404,-0.5406,-0.5395,-0.5395,-0.539,-0.5389,-0.5387,-0.5375,-0.5374,-0.5367,-0.5369,-0.5367,-0.5364,-0.5363,-0.5355,-0.5352,-0.5347,-0.5359,-0.5347,-0.5351,-0.5348,-0.5347,-0.5348,-0.5361,-0.5361,-0.5361,-0.5362,0,-0.5426,-0.5421,-0.5419,-0.5415,-0.5413,-0.541,-0.5406,-0.5406,-0.5393,-0.5393,-0.5391,-0.5389,-0.5387,-0.5385,-0.5381,-0.5377,-0.5368,-0.5366,-0.5368,-0.537,-0.5374,-0.5373,-0.5338,-0.5365,-0.5364,-0.5364,-0.5364,-0.5364,-0.5444,-0.5445,-0.5439,-0.5437,-0.5433,-0.543,-0.543,-0.5424,-0.5422,-0.5419,-0.5413,-0.5413,-0.5408,-0.5402,-0.5399,-0.5399,-0.5394,-0.5396,-0.5397,-0.5397,-0.5399,-0.5375,-0.5399,-0.5399,-0.5399,-0.5398,-0.5398,0,-0.5465,-0.5461,-0.5459,-0.5454,-0.5453,-0.5446,-0.5441,-0.5441,-0.5441,-0.5437,-0.5436,-0.5435,-0.5434,-0.5427,-0.5425,-0.5427,-0.5423,-0.5427,-0.5427,-0.5426,-0.5404,-0.5403,-0.5431,-0.5431,-0.5431,-0.5431,-0.5431,-0.5431,-0.5476,-0.5478,-0.5473,-0.5474,-0.547,-0.547,-0.5469,-0.5466,-0.5463,-0.5463,-0.5462,-0.5458,-0.5453,-0.5451,-0.5451,-0.5449,-0.5449,-0.5454,-0.5451,-0.5431,-0.5427,-0.5424,-0.5423,-0.5455,-0.5455,-0.5473,-0.5473,-0.5473]},{"header":{"parameterUnit":"m.s-1","parameterCategory":1,"la1":30.2991,"la2":30.254,"lo1":-89.0895,"lo2":-89.0444,"dy":0.0017,"dx":0.0017,"nx":28,"ny":28,"refTime":"2024-04-24T21:00:00:Z","depth":0,"parameterNumber":3,"parameterNumberName":"V-component_of_WINDS"},"data":[0,0,0,0,0,0,0,0,0,0,0,0,0,0,0,0,0,0,0,0,0,0,0,0,0,0,0,0,0,0,0,0,0,0,0,0,0,0,0,0,0,0,0,0,0,0,0,0,0,0,0,0,0,0,0,0,0,0,2.5597,2.5597,0,2.5626,2.5626,2.5627,2.5708,2.571,2.5712,2.5713,2.574,2.5739,2.5738,0,0,0,0,0,0,0,0,0,0,0,0,0,2.5607,2.5607,2.5597,2.5597,2.5598,2.5626,2.5626,2.5627,2.5708,2.571,2.5712,2.5714,2.574,2.5739,2.5738,0,0,0,0,0,0,0,0,0,0,0,0,0,2.5616,2.5607,2.5597,2.5641,2.5646,2.5626,2.5626,2.5627,2.5707,2.571,2.5713,2.5715,2.574,2.5739,2.5737,2.5675,0,0,2.5733,2.5733,0,0,0,0,0,0,0,0,2.5615,2.5616,2.5635,2.5638,2.5643,2.5666,2.564,2.5643,2.5707,2.5684,2.5713,2.5716,2.5713,2.5714,2.5713,2.5677,2.5678,2.5733,2.5732,2.5732,2.5731,0,0,0,0,0,0,0,2.5615,2.5615,2.5608,2.5635,2.564,2.5659,2.5663,2.5641,2.5683,2.5686,2.5692,2.5694,2.5716,2.5714,2.5714,2.5678,2.5733,2.5732,2.5731,2.573,2.5588,2.5586,0,0,0,0,0,0,2.5608,2.5614,2.5607,2.5609,2.5636,2.5656,2.5661,2.5656,2.5683,2.569,2.5692,2.5698,2.5716,2.5716,2.5716,2.5642,2.5732,2.573,2.5729,2.5591,2.5588,2.5585,0,0,0,0,0,0,2.5608,2.5607,2.5606,2.5613,2.5614,2.5653,2.5647,2.5655,2.5654,2.5688,2.5696,2.5683,2.5718,2.5718,2.5684,2.5644,2.573,2.5728,2.5595,2.559,2.5586,2.5495,0,0,0,0,0,0,2.5608,2.5606,2.5584,2.5612,2.5614,2.5575,2.5645,2.5654,2.5652,2.566,2.5682,2.5688,2.572,2.5686,2.5683,2.5643,2.5727,2.5598,2.5593,2.5588,2.5501,2.5488,2.5476,0,0,0,0,0,2.5608,2.5557,2.5583,2.5581,2.5587,2.5573,2.5574,2.5612,2.5648,2.5625,2.5647,2.5687,2.565,2.5682,2.5679,2.5638,2.5601,2.5594,2.5588,2.5507,2.549,2.5476,0,0,0,0,0,0,2.5523,2.5562,2.559,2.5547,2.5556,2.5586,2.5559,2.5594,2.5592,2.5599,2.5646,2.565,2.5609,2.5622,2.5657,2.5578,2.5632,2.5624,2.5571,2.5556,2.5543,2.5539,2.5726,0,0,0,0,0,2.55,2.5486,2.552,2.5479,2.5482,2.5519,2.5515,2.5544,2.5554,2.5558,2.5577,2.5585,2.5574,2.5566,2.5559,2.5505,2.5509,2.5475,2.5463,2.5452,2.5444,2.5412,2.5397,2.5563,2.5563,2.5563,0,0,2.545,2.547,2.5458,2.5462,2.5472,2.5455,2.5522,2.5502,2.5488,2.5555,2.5523,2.5538,2.5549,2.5504,2.5485,2.5512,2.5399,2.5444,2.5435,2.5433,2.5404,2.5388,2.5374,2.5559,2.5559,2.556,0,0,2.5351,2.5366,2.5331,2.534,2.5355,2.538,2.5371,2.5396,2.5408,2.5378,2.5426,2.5411,2.5393,2.5398,2.5399,2.5299,2.5335,2.5296,2.5228,2.5197,2.5184,2.5172,2.5133,2.5119,2.5289,2.5288,2.5288,0,2.5287,2.5264,2.5309,2.5285,2.5283,2.5344,2.5307,2.5314,2.5324,2.5321,2.5353,2.533,2.5342,2.5297,2.5272,2.5272,2.5261,2.5292,2.5182,2.5171,2.5161,2.5124,2.5109,2.5283,2.5284,2.5284,2.5285,0,2.5183,2.5166,2.5137,2.5146,2.5142,2.5112,2.515,2.514,2.5169,2.519,2.5157,2.5174,2.5169,2.5162,2.519,2.512,2.5136,2.5174,2.5228,2.5139,2.5105,2.5091,2.5276,2.5278,2.5279,2.528,0,0,2.5029,2.5063,2.5051,2.5054,2.5075,2.5062,2.5034,2.503,2.5019,2.5025,2.5,2.4983,2.5017,2.5018,2.5047,2.502,2.4935,2.5062,2.5062,2.5034,2.4854,2.4822,2.4805,2.4961,2.4959,2.4957,2.4852,0,2.4932,2.4886,2.4925,2.4871,2.4854,2.491,2.4885,2.4894,2.4912,2.49,2.4921,2.4906,2.4955,2.4955,2.4931,2.4951,2.4899,2.496,2.4935,2.4933,2.4926,2.4788,2.4755,2.4655,2.4839,2.4837,2.4835,0,2.4813,2.4812,2.4756,2.4778,2.4772,2.4749,2.4747,2.4735,2.4745,2.476,2.476,2.4796,2.4767,2.4823,2.4782,2.4822,2.4815,2.4823,2.482,2.4816,2.4876,2.4776,2.4625,2.4608,2.4816,2.4817,2.4819,0,2.4701,2.4687,2.4651,2.4652,2.4678,2.4659,2.4669,2.4682,2.4676,2.4674,2.467,2.4665,2.4661,2.4656,2.4689,2.4727,2.4642,2.4701,2.4651,2.465,2.4628,2.4628,2.4468,2.4629,2.4629,2.463,2.463,0,2.4586,2.4548,2.46,2.4577,2.4536,2.4581,2.4538,2.4554,2.4564,2.4544,2.4594,2.4573,2.462,2.4603,2.4629,2.4589,2.4588,2.4597,2.4604,2.4591,2.4589,2.4583,2.459,2.4626,2.4627,2.4627,2.4628,0,2.4453,2.4487,2.445,2.4477,2.4483,2.4451,2.4473,2.4451,2.4474,2.4447,2.4443,2.4478,2.4461,2.4494,2.4482,2.4499,2.4441,2.4461,2.4437,2.4442,2.4388,2.4391,2.4216,2.4194,2.4372,2.4371,2.4369,0,2.4375,2.4348,2.4371,2.4361,2.4368,2.4352,2.4346,2.4389,2.438,2.4388,2.4365,2.4353,2.4345,2.4314,2.4337,2.4327,2.4344,2.4284,2.4343,2.4329,2.4338,2.4337,2.4333,2.427,2.4268,2.4266,2.4265,0,2.4233,2.4251,2.4241,2.4236,2.4228,2.4226,2.4228,2.4217,2.4262,2.4249,2.4233,2.4227,2.4214,2.4199,2.4194,2.4202,2.4239,2.4246,2.4233,2.4217,2.4203,2.4206,2.44,2.4249,2.4251,2.4252,2.4253,2.4253,2.4123,2.4099,2.4112,2.4098,2.4104,2.4104,2.4084,2.4104,2.4091,2.4084,2.411,2.4087,2.4095,2.4092,2.4096,2.4077,2.4104,2.4086,2.4081,2.4075,2.4064,2.421,2.4077,2.4077,2.4078,2.4078,2.4079,0,2.3979,2.399,2.3978,2.3978,2.3967,2.4005,2.4008,2.3995,2.3974,2.398,2.3971,2.395,2.3935,2.3957,2.3945,2.3926,2.3942,2.3921,2.392,2.3921,2.4043,2.4053,2.3907,2.3907,2.3907,2.3907,2.3907,2.3907,2.3903,2.3865,2.3883,2.3847,2.3858,2.3836,2.3833,2.3833,2.3837,2.3811,2.38,2.3814,2.3825,2.3815,2.3802,2.3809,2.38,2.3772,2.3784,2.3896,2.3913,2.3929,2.3938,2.3771,2.3771,2.3663,2.3662,2.3661]}]]